This is the latest recevied weather packets stored in our database for station/object DO3MHA-13. If no packets are shown the sender has not sent any weather packets the latest 1 day(s).
| Time | Temp. | Humidity | Pressure | Rain* | Wind** | Luminosity | Snow |
|---|---|---|---|---|---|---|---|
| 1778038458 | - | - | 998.8 hPa | 0 mm | 1.34 m/s, 180° | - | - |
| 1778038448 | - | - | 998.8 hPa | 0 mm | 1.34 m/s, 225° | - | - |
| 1778038438 | - | - | 998.7 hPa | 0 mm | 1.34 m/s, 225° | - | - |
| 1778038428 | - | - | 998.8 hPa | 0 mm | 1.34 m/s, 203° | - | - |
| 1778038418 | - | - | 998.7 hPa | 0 mm | 1.34 m/s, 180° | - | - |
| 1778038408 | - | - | 998.7 hPa | 0 mm | 1.34 m/s, 158° | - | - |
| 1778038398 | - | - | 998.8 hPa | 0 mm | 1.34 m/s, 180° | - | - |
| 1778038388 | - | - | 998.7 hPa | 0 mm | 1.79 m/s, 225° | - | - |
| 1778038368 | - | - | 998.7 hPa | 0 mm | 1.79 m/s, 248° | - | - |
| 1778038348 | - | - | 998.7 hPa | 0 mm | 1.79 m/s, 225° | - | - |
| 1778038338 | - | - | 998.7 hPa | 0 mm | 1.79 m/s, 180° | - | - |
| 1778038298 | - | - | 998.7 hPa | 0 mm | 1.79 m/s, 225° | - | - |
| 1778038288 | - | - | 998.6 hPa | 0 mm | 1.34 m/s, 180° | - | - |
| 1778038268 | - | - | 998.6 hPa | 0 mm | 1.34 m/s, 203° | - | - |
| 1778038258 | - | - | - | 0 mm | 1.34 m/s, 225° | - | - |
| 1778038248 | - | - | 998.7 hPa | 0 mm | 1.34 m/s, 225° | - | - |
| 1778038238 | - | - | 998.7 hPa | 0 mm | 1.34 m/s, 135° | - | - |
| 1778038228 | - | - | 998.6 hPa | 0 mm | 0.89 m/s, 225° | - | - |
| 1778038208 | - | - | 998.6 hPa | 0 mm | 1.34 m/s, 225° | - | - |
| 1778038198 | - | - | 998.6 hPa | 0 mm | 1.34 m/s, 180° | - | - |
| 1778038178 | - | - | 998.6 hPa | 0 mm | 0.89 m/s, 225° | - | - |
| 1778038168 | - | - | 998.7 hPa | 0 mm | 0.89 m/s, 180° | - | - |
| 1778038158 | - | - | 998.6 hPa | 0 mm | 0.89 m/s, 180° | - | - |
| 1778038148 | - | - | 998.6 hPa | 0 mm | 0.89 m/s, 203° | - | - |
| 1778038128 | - | - | 998.6 hPa | 0 mm | 0.45 m/s, 225° | - | - |
* Rain latest hour (hover to see other rain measurements)
** Current wind speed in m/s (hover to see current wind gust speed)